Location: 81360 Arifat, France
(43.7204°N, 2.3408°E)
Time: 00:02:46
(UTC+02:00)

N. Korean satellite - Pass Details

Date: 02 October 2021
Orbit: 450 x 494 km, 97.3° (Epoch: 28 October)

Event Time Altitude Azimuth Distance (km) Brightness Sun altitude
Rises 06:55:24 0° 16° (NNE) 2,553 10.5 -10.6°
Reaches altitude 10° 06:57:29 10° 20° (NNE) 1,676 9.6 -10.2°
Maximum altitude 07:01:03 56° 100° (E) 585 7.4 -9.6°
Drops below altitude 10° 07:04:37 10° 180° (S) 1,681 9.3 -8.9°
Sets 07:06:43 0° 184° (S) 2,562 10.2 -8.5°
